NOAA 7 DEB

Satellite information

Favourite Embed

Satellite Type and Status

DEBRISIN ORBIT

Key statistics

Satellite NOAA 7 DEB at a glance.

Uptime

16029

Days in orbit

Revolutions

≈ 14.4

Per day

Orbit

SSO

Sun Synchronous Orbit

Inclination

98.5

Latest

Satellite identification and parameters

Extended collection of information and parameters for NOAA 7 DEB.

Object identification

Identified? True

Debris? True

Object name: NOAA 7 DEB

International designator: 1981-059F

Object number (NORAD): 24914

Object ID (CCSDS): 24914

Country: UNITED STATES OF AMERICA (US)

Current information (Y/N): Y

RCS size: MEDIUM

Orbital parameters

Period: 99.835 minutes

Inclination: 98.5215 deg

SMA: 7128.798 km

Apoapsis: 764.063 km

Periapsis: 737.262 km

RAAN: 179.6635 deg

Eccentricy: 0.0018798

Argument of periapsis: 249.1091 deg

Mean anomaly: 110.8086 deg

Mean motion: 14.42375442 rev/day

Mean motion (dot): 0.00000977 rev/day2

B* drag term: 0.00030831 1/REarth

Two-line elements (TLE)

Creation date: May 11, 2025, 2:40 a.m.

Reference frame: TEME

Reference center: EARTH

Epoch: May 10, 2025, 8:15 p.m. UTC

TLE line 0: 0 NOAA 7 DEB

TLE line 1: 1 24914U 81059F 25130.84440450 .00000977 00000-0 30831-3 0 9994

TLE line 2: 2 24914 98.5215 179.6635 0018798 249.1091 110.8086 14.42375442446620

Live tracking on map

Real-time ground track for satellite NOAA 7 DEB.

In-orbit conjunctions

A list of the most updated potential collisions computed for object NOAA 7 DEB.

Target Orbit TCA Probability of collision Miss distance Type
COSMOS 1867 COOLANT LEO 2025-03-05 23:52:46 0.0001236514 344.0 (m) DEBRIS

Associated space launch

Third generation LEO meteorological satellite

NOAA 7 DEB was lifted into orbit during the mission ‘Atlas F | NOAA 7’, on board a Atlas F space rocket.

The launch took place on June 23, 1981, 10:52 a.m. from Space Launch Complex 3W.

For more information about the launch, click the button.

Launch to space Atlas F | NOAA 7
Atlas F | NOAA 7

Agency: N/A

Status: Launch Successful

Launch date: June 23, 1981, 10:52 a.m. UTC

Rocket: Atlas F

Launch pad: Space Launch Complex 3W

Location: Vandenberg SFB, CA, USA

...

Latest news about this satellite

There are no fresh news available about this satellite. Check back as we update our databases every day.


Newsletter sign-up

Weekly statistics, charts and insights to help you stay on top of the space industry.